"Time","Temp","Dewpoint","Humidity","Pressure","Direction","Speed","Gust","Precip","PrecipRate"
"00:04:56","60.6","57.7","90","29.91","288","0","1","0.00","0.00"
"00:09:56","60.5","57.6","90","29.91","288","0.6","2.3","0.00","0.00"
"00:14:57","60.4","57.5","90","29.91","288","0.6","2.3","0.00","0.00"
"00:19:56","60.4","57.5","90","29.91","288","0.5","2.3","0.00","0.00"
"00:24:56","60.5","57.6","90","29.91","281","0.6","4","0.00","0.00"
"00:29:57","60.7","57.5","89.3","29.91","290","0.7","5","0.00","0.00"
"00:34:59","60.8","57.5","89","29.91","334","1","3.5","0.00","0.00"
"00:39:59","60.9","57.5","88.5","29.91","329","0.8","4","0.00","0.00"
"00:44:57","61","57.4","88","29.92","289","1.1","4","0.00","0.00"
"00:49:56","61.2","57.5","87.7","29.92","275","0.5","2.3","0.00","0.00"
"00:54:56","61.3","57.4","87","29.92","295","0.2","3","0.00","0.00"
"00:59:59","61.3","57.4","87","29.92","342","0.4","3.5","0.00","0.00"
"01:04:57","61.4","57.5","87","29.92","342","0.3","2.3","0.00","0.00"
"01:09:58","61.5","57.4","86.1","29.92","295","0.9","3.5","0.00","0.00"
"01:14:57","61.6","57.4","86","29.92","290","0.3","3","0.00","0.00"
"01:19:56","61.6","57.4","86","29.91","283","1.3","5","0.00","0.00"
"01:24:58","61.7","57.2","85.2","29.91","289","1.6","5","0.00","0.00"
"01:29:56","61.8","56.9","84","29.91","269","1.3","3.5","0.00","0.00"
"01:34:56","61.9","56.9","83.5","29.91","277","0.9","3.5","0.00","0.00"
"01:39:55","62","56.8","83.1","29.91","328","1.5","4","0.00","0.00"
"01:44:56","62","56.5","82.2","29.92","308","2","4","0.00","0.00"
"01:49:56","62.1","56.4","81.7","29.92","337","1.3","3.5","0.00","0.00"
"01:54:58","62.1","56.2","80.9","29.92","336","1.3","4","0.00","0.00"
"01:59:56","62.2","56.3","81","29.92","337","0.6","3.5","0.00","0.00"
"02:04:58","62","56.3","81.7","29.91","336","0.2","2","0.00","0.00"
"02:09:57","61.6","56","81.9","29.91","338","0.6","2.3","0.00","0.00"
"02:14:58","61.4","55.5","81","29.91","338","0.4","2.3","0.00","0.00"
"02:19:59","61.5","55.5","80.8","29.91","338","0.2","2.3","0.00","0.00"
"02:24:59","61.6","55.4","80","29.91","338","0.1","1.2","0.00","0.00"
"02:29:57","61.7","55.5","80","29.92","338","0.1","2.3","0.00","0.00"
"02:34:58","61.6","55.7","80.7","29.92","338","0.2","2.3","0.00","0.00"
"02:39:56","61.4","55.5","81","29.92","297","0.9","3.5","0.00","0.00"
"02:44:56","61.5","55.6","81","29.92","303","0.5","3.5","0.00","0.00"
"02:49:56","61.5","55.9","81.7","29.92","302","0.2","2.3","0.00","0.00"
"02:54:56","61.4","55.8","81.7","29.92","302","0.4","2.3","0.00","0.00"
"02:59:56","61.2","55.7","82","29.93","302","0","1.2","0.00","0.00"
"03:04:56","61","55.7","82.7","29.93","302","0.2","2.3","0.00","0.00"
"03:09:58","60.7","55.5","83","29.93","302","0.2","2.3","0.00","0.00"
"03:14:55","60.4","55.4","84","29.93","302","0","0","0.00","0.00"
"03:19:57","60","55.3","84.5","29.92","302","0.1","1.2","0.00","0.00"
"03:24:58","59.7","55.2","85","29.92","302","0.4","2.3","0.00","0.00"
"03:29:59","59.5","55.1","85.4","29.93","302","0.7","3","0.00","0.00"
"03:34:57","59.3","55.1","86","29.93","300","0.5","3.5","0.00","0.00"
"03:39:58","59.1","55","86.1","29.93","300","0.3","3.5","0.00","0.00"
"03:44:57","58.9","55","87","29.93","300","0","1.2","0.00","0.00"
"03:49:59","58.7","54.8","87","29.93","300","0.3","2.3","0.00","0.00"
"03:54:59","58.4","54.6","87.2","29.93","300","1","3","0.00","0.00"
"03:59:58","58.3","54.7","87.8","29.94","300","0.1","1.2","0.00","0.00"
"04:04:57","58.1","54.6","88","29.94","300","0","0","0.00","0.00"
"04:09:56","57.9","54.5","88.3","29.94","300","0","0","0.00","0.00"
"04:14:58","57.7","54.5","88.8","29.94","300","0","0","0.00","0.00"
"04:19:58","57.6","54.3","88.5","29.94","300","0","0","0.00","0.00"
"04:24:56","57.6","54.4","89","29.94","300","0","0","0.00","0.00"
"04:29:59","57.5","54.3","89","29.95","300","0","0","0.00","0.00"
"04:34:56","57.3","54.1","89","29.95","300","0.3","2.3","0.00","0.00"
"04:39:57","57.3","54.1","89","29.95","307","0.8","4","0.00","0.00"
"04:44:59","57.4","54.2","89","29.95","321","0.6","3.5","0.00","0.00"
"04:49:57","57.4","54.3","89.5","29.95","321","0.1","2.3","0.00","0.00"
"04:54:57","57.3","54.1","89.1","29.95","321","0.4","2.3","0.00","0.00"
"04:59:59","57.3","54.1","89","29.95","321","0.5","2.3","0.00","0.00"
"05:04:56","57.2","54","88.9","29.95","271","0.9","4","0.00","0.00"
"05:09:58","57.4","53.9","88","29.95","215","0.4","5","0.00","0.00"
"05:14:58","57.6","54","87.6","29.96","223","1.6","4.6","0.00","0.00"
"05:19:57","58.1","54.1","86.6","29.96","211","2.1","6","0.00","0.00"
"05:24:59","58.6","54.4","86","29.96","212","1.4","3.5","0.00","0.00"
"05:29:59","58.9","54.3","84.7","29.96","215","1.3","3.5","0.00","0.00"
"05:34:58","59.2","54.4","84","29.96","261","1.3","4","0.00","0.00"
"05:39:57","59.5","54.4","83.2","29.96","276","1.6","5","0.00","0.00"
"05:44:59","59.7","54.5","83","29.96","226","0.9","4","0.00","0.00"
"05:49:56","59.9","54.7","83","29.96","221","1.3","5","0.00","0.00"
"05:54:57","59.9","54.7","82.8","29.96","316","1.9","9.2","0.00","0.00"
"05:59:56","59.9","54.6","82.6","29.96","318","2.6","8.1","0.00","0.00"
"06:04:56","60","54.5","82","29.96","318","2.4","7","0.00","0.00"
"06:09:59","60","54.5","82","29.96","290","3.1","9","0.00","0.00"
"06:14:59","60.1","54.6","82","29.97","290","3.1","10.4","0.00","0.00"
"06:19:57","60.1","54.6","82","29.97","268","2.5","10.4","0.00","0.00"
"06:24:59","60.1","54.6","82","29.97","300","2.7","7","0.00","0.00"
"06:29:57","60","54.6","82.5","29.98","319","2.7","7","0.00","0.00"
"06:34:56","59.8","54.6","83","29.98","289","2.2","6.9","0.00","0.00"
"06:39:57","59.7","54.5","83","29.98","307","2.4","7","0.00","0.00"
"06:44:58","59.7","54.5","83","29.99","254","2.1","6.9","0.00","0.00"
"06:49:56","59.7","54.5","83","29.99","333","1.4","6","0.00","0.00"
"06:54:56","59.7","54.5","83","29.99","358","1.7","5.8","0.00","0.00"
"06:59:59","59.7","54.5","83","30.00","319","1.9","7","0.00","0.00"
"07:04:56","59.8","54.6","83","30.00","310","2.7","9.2","0.00","0.00"
"07:09:58","60","54.6","82.3","30.00","316","2.8","12","0.00","0.00"
"07:14:58","60.3","54.8","82","30.01","305","1.9","6","0.00","0.00"
"07:19:57","60.5","55","82","30.01","308","1.7","6","0.00","0.00"
"07:24:59","60.7","55","81.7","30.01","315","1.5","6","0.00","0.00"
"07:29:57","60.9","55","81.2","30.02","260","1.7","5.8","0.00","0.00"
"07:34:59","61.1","55.2","81","30.02","242","0.8","5","0.00","0.00"
"07:39:58","61.3","55.3","80.6","30.02","310","1.7","6","0.00","0.00"
"07:44:57","61.6","55.4","80","30.03","320","2","5.8","0.00","0.00"
"07:49:58","61.8","55.6","80","30.03","323","1.6","5","0.00","0.00"
"07:54:57","62","55.8","80.2","30.03","327","0.7","6","0.00","0.00"
"07:59:59","62.1","56","80.3","30.03","331","1","5.8","0.00","0.00"
"08:04:56","62.5","56.1","79.6","30.02","355","1.2","4","0.00","0.00"
"08:09:57","63","56.2","78.6","30.02","355","2","6","0.00","0.00"
"08:14:56","63.2","56.1","77.7","30.03","337","2.2","7","0.00","0.00"
"08:19:57","63.5","56.5","77.8","30.03","335","2","5.8","0.00","0.00"
"08:24:55","63.8","56.4","77","30.03","355","2.3","6","0.00","0.00"
"08:29:58","64.1","56.7","76.9","30.04","5","1.7","6","0.00","0.00"
"08:34:56","64.5","56.8","76.1","30.04","327","1.2","5.8","0.00","0.00"
"08:39:59","64.9","57.1","75.9","30.04","342","0.5","2.3","0.00","0.00"
"08:44:57","65.2","57.2","75.4","30.04","342","0.6","3.5","0.00","0.00"
"08:49:59","65.4","57.2","74.8","30.04","284","1.4","4","0.00","0.00"
"08:54:57","65.4","57.4","75.4","30.04","256","0.5","3","0.00","0.00"
"08:59:55","65.5","57.3","74.7","30.04","346","1.5","5","0.00","0.00"
"09:04:57","65.4","57","74","30.04","341","2.9","9.2","0.00","0.00"
"09:09:59","65.3","57.2","74.9","30.04","339","3","7","0.00","0.00"
"09:14:58","65.4","57","74.3","30.04","348","3.6","9.2","0.00","0.00"
"09:19:57","65.5","57.1","74.4","30.04","337","2.7","7","0.00","0.00"
"09:24:56","65.7","57.2","74.1","30.04","318","1.5","7","0.00","0.00"
"09:29:57","66.1","57.8","74.5","30.04","351","1.2","5","0.00","0.00"
"09:34:59","66.6","57.8","73.1","30.04","345","3.1","8.1","0.00","0.00"
"09:39:59","66.8","57.7","72.5","30.04","333","2.7","7","0.00","0.00"
"09:44:56","66.8","57.6","72.1","30.04","354","3","8.1","0.00","0.00"
"09:49:57","67","57.5","71.7","30.04","321","3.4","10.4","0.00","0.00"
"09:54:58","67.1","57.8","71.9","30.04","335","3","7","0.00","0.00"
"09:59:59","67.5","58","71.6","30.05","328","3.5","11.5","0.00","0.00"
"10:04:59","67.6","57.7","70.5","30.05","328","3.9","11.5","0.00","0.00"
"10:09:58","67.7","58.2","71.6","30.05","330","2.9","11.5","0.00","0.00"
"10:14:58","68.1","58","70.2","30.05","347","3.7","10.4","0.00","0.00"
"10:19:56","68.2","57.8","69.4","30.05","331","4.3","13","0.00","0.00"
"10:24:59","68.5","58.2","69.9","30.05","12","3","7","0.00","0.00"
"10:29:57","68.9","58.9","70.7","30.05","356","2","6.9","0.00","0.00"
"10:34:59","69.3","58.8","69.3","30.05","347","5.3","14","0.00","0.00"
"10:39:56","69.3","57.9","67","30.05","343","5.1","14","0.00","0.00"
"10:44:59","69.2","57.9","67.5","30.05","1","7","15","0.00","0.00"
"10:49:57","69.2","58.3","68.1","30.05","345","3.1","10.4","0.00","0.00"
"10:54:58","69.7","58.2","66.9","30.05","342","5.2","15","0.00","0.00"
"10:59:56","70","58.3","66.6","30.06","354","4","14","0.00","0.00"
"11:04:54","70.2","58.7","67.1","30.06","313","4.5","14","0.00","0.00"
"11:09:56","70.1","58.4","66.5","30.06","348","3.5","20","0.00","0.00"
"11:14:57","70.2","58.2","65.7","30.06","354","4.3","19.6","0.00","0.00"
"11:19:59","70.5","58.5","65.6","30.06","353","3.2","10.4","0.00","0.00"
"11:24:56","70.5","57.2","62.7","30.06","330","5.5","15","0.00","0.00"
"11:29:58","69.7","56.7","63.5","30.06","1","3","13.8","0.00","0.00"
"11:34:59","69.3","56.8","64.4","30.06","351","3.3","13","0.00","0.00"
"11:39:56","69.1","57.1","65.7","30.06","320","2.6","12.7","0.00","0.00"
"11:44:57","69.5","57.5","65.7","30.06","338","3.2","12","0.00","0.00"
"11:49:59","70.3","57.4","63.5","30.06","338","6.7","13","0.00","0.00"
"11:54:58","70.9","57.8","63.5","30.06","338","5","11.5","0.00","0.00"
"11:59:59","71","57.6","62.6","30.06","342","3.9","11.5","0.00","0.00"
"12:04:55","71.2","58.5","64.2","30.06","343","3.3","10.4","0.00","0.00"
"12:09:58","71.3","58","62.8","30.06","354","3.4","10.4","0.00","0.00"
"12:14:59","70.9","57.3","62.2","30.06","330","4.4","12","0.00","0.00"
"12:19:57","70.9","57.8","63.3","30.05","22","4.6","11.5","0.00","0.00"
"12:24:56","71.5","57.4","61.2","30.05","344","5.5","16","0.00","0.00"
"12:29:58","71.9","57.5","60.5","30.05","335","5","12","0.00","0.00"
"12:34:58","72.3","58.5","62","30.05","325","2.4","6.9","0.00","0.00"
"12:39:57","72.8","57.8","59.4","30.05","338","5.9","14","0.00","0.00"
"12:44:59","72.7","58.4","60.8","30.05","334","4.1","11.5","0.00","0.00"
"12:49:57","73.1","59.3","62.1","30.05","330","3.2","10.4","0.00","0.00"
"12:54:57","73.5","58","58.4","30.05","308","4.4","10.4","0.00","0.00"
"12:59:56","73.7","58.2","58.6","30.05","325","4","10.4","0.00","0.00"
"13:04:57","73.9","57.6","56.9","30.05","334","5.2","15","0.00","0.00"
"13:09:59","73.5","57.2","56.7","30.05","312","4.1","13","0.00","0.00"
"13:14:57","73.6","59.1","60.6","30.05","292","3","10.4","0.00","0.00"
"13:19:59","73.8","57.8","57.4","30.05","335","5.3","13","0.00","0.00"
"13:24:58","73.8","57.3","56.4","30.05","324","4.4","15","0.00","0.00"
"13:29:56","73.9","57.2","56","30.05","344","4.7","13","0.00","0.00"
"13:34:56","73.6","57.2","56.5","30.05","338","2.8","11.5","0.00","0.00"
"13:39:58","73.7","58.2","58.4","30.05","323","3.9","11.5","0.00","0.00"
"13:44:57","73.7","57.5","56.9","30.05","349","3","7","0.00","0.00"
"13:49:59","73.5","57.4","57.1","30.05","310","4.5","14","0.00","0.00"
"13:54:58","73.8","58.5","59","30.05","294","2.9","13","0.00","0.00"
"13:59:59","74.4","58.4","57.3","30.05","337","4.3","12.7","0.00","0.00"
"14:04:59","74.9","59.1","58","30.05","336","3.9","12","0.00","0.00"
"14:09:57","75.2","58.1","55.4","30.05","325","3.9","9.2","0.00","0.00"
"14:14:57","75.5","58.3","55","30.05","352","4.3","9.2","0.00","0.00"
"14:19:57","75.8","57.9","53.8","30.05","327","3.8","10.4","0.00","0.00"
"14:24:59","75.8","57.6","53.3","30.05","348","3.7","13","0.00","0.00"
"14:29:59","75.7","56.8","51.9","30.05","307","3.4","12.7","0.00","0.00"
"14:34:56","75.7","56.9","52.2","30.04","320","3.1","10","0.00","0.00"
"14:39:57","75.7","57.7","53.5","30.04","287","3.5","12","0.00","0.00"
"14:44:59","76","57","51.7","30.04","324","4.4","11.5","0.00","0.00"
"14:49:56","76.2","57.4","52.2","30.04","337","4","12","0.00","0.00"
"14:54:58","76.2","56","49.6","30.04","331","5.4","15","0.00","0.00"
"14:59:59","76.2","57.1","51.7","30.04","341","3.5","12","0.00","0.00"
"15:04:56","76.2","56.2","50","30.04","337","4.8","11.5","0.00","0.00"
"15:09:57","76","56.4","50.7","30.04","318","3.4","10.4","0.00","0.00"
"15:14:59","75.8","56.9","51.9","30.04","344","3.2","10","0.00","0.00"
"15:19:56","76","57.4","52.6","30.04","348","3.6","10.4","0.00","0.00"
"15:24:59","76.5","57.4","51.8","30.04","335","3.7","11","0.00","0.00"
"15:29:57","76.8","57.3","51","30.04","326","3.2","9.2","0.00","0.00"
"15:34:56","76.8","55.9","48.6","30.04","338","5.2","14","0.00","0.00"
"15:39:56","76.5","56.1","49.4","30.04","324","4.7","11.5","0.00","0.00"
"15:44:58","76.6","56.6","50","30.04","336","4.5","13","0.00","0.00"
"15:49:56","76.6","56.1","49.1","30.04","340","3.7","12","0.00","0.00"
"15:54:56","76.5","55.9","49.1","30.04","345","3.2","12","0.00","0.00"
"15:59:59","76.5","55.6","48.5","30.04","350","3.1","8.1","0.00","0.00"
"16:04:56","76.5","55.5","48.2","30.04","334","4","14","0.00","0.00"
"16:09:58","76.4","56.1","49.4","30.04","331","3.8","11","0.00","0.00"
"16:14:58","76.6","56.2","49.4","30.04","329","4.7","14","0.00","0.00"
"16:19:59","76.9","57.1","50.4","30.04","313","2.9","11.5","0.00","0.00"
"16:24:56","77.3","56.5","48.8","30.04","333","3.1","11.5","0.00","0.00"
"16:29:57","77.5","56.7","48.8","30.04","296","2.6","7","0.00","0.00"
"16:34:57","77.8","56.6","48.1","30.04","317","2.8","7","0.00","0.00"
"16:39:57","78.1","56.9","48.3","30.04","333","2.8","10","0.00","0.00"
"16:44:58","78","56.4","47.5","30.04","316","3.1","10","0.00","0.00"
"16:49:57","77.6","55.9","47.1","30.04","335","4.7","11.5","0.00","0.00"
"16:54:59","77.3","55.5","46.9","30.04","319","3.2","13","0.00","0.00"
"16:59:57","77.1","56.3","48.6","30.04","335","2.5","12.7","0.00","0.00"
"17:04:56","77.2","57.1","49.9","30.04","292","1.5","6.9","0.00","0.00"
"17:09:58","77.6","57.7","50.4","30.04","314","1.8","7","0.00","0.00"
"17:14:56","77.5","56.7","48.8","30.04","327","2.7","6.9","0.00","0.00"
"17:19:56","77.4","55.8","47.5","30.04","317","3","7","0.00","0.00"
"17:24:56","76.9","55.3","47.3","30.04","328","3.5","9","0.00","0.00"
"17:29:59","76.6","56","48.9","30.04","343","1.8","6","0.00","0.00"
"17:34:57","76.6","55.9","48.9","30.04","326","2.5","8.1","0.00","0.00"
"17:39:59","76.5","55.6","48.4","30.04","329","3.3","10.4","0.00","0.00"
"17:44:59","76.3","55.9","49.5","30.05","338","1.9","6","0.00","0.00"
"17:49:58","76.3","56.8","51","30.05","346","0.8","4","0.00","0.00"
"17:54:58","76.3","56.2","49.9","30.05","329","1.9","4","0.00","0.00"
"17:59:59","76.1","56.2","50.2","30.05","329","1.9","5","0.00","0.00"
"18:04:57","76","57.1","52.1","30.05","345","0.7","3.5","0.00","0.00"
"18:09:56","75.7","56.5","51.5","30.05","345","0.9","2.3","0.00","0.00"
"18:14:57","75.2","56.9","53.1","30.05","345","1","3.5","0.00","0.00"
"18:19:58","74.8","56.6","53.1","30.05","345","0.9","3.5","0.00","0.00"
"18:24:57","74.3","56.7","54.2","30.05","345","1","2.3","0.00","0.00"
"18:29:55","73.8","57.2","56.3","30.05","345","0.4","2.3","0.00","0.00"
"18:34:58","73.3","57.5","57.8","30.05","345","0","1.2","0.00","0.00"
"18:39:57","73","57.8","59","30.05","345","0.2","1.2","0.00","0.00"
"18:44:59","72.5","58.5","61.5","30.06","345","0.1","1.2","0.00","0.00"
"18:49:57","71.8","58.6","63.3","30.06","345","0.4","2.3","0.00","0.00"
"18:54:56","71.2","58.6","64.3","30.06","345","0.2","2.3","0.00","0.00"
"18:59:59","70.8","59.2","67","30.06","345","0","1","0.00","0.00"
"19:04:56","70.2","59.2","68.2","30.06","345","0","1.2","0.00","0.00"
"19:09:59","69.5","58.9","68.9","30.06","345","0.1","1.2","0.00","0.00"
"19:14:59","68.9","59.3","71.4","30.07","345","0","0","0.00","0.00"
"19:19:56","68.3","59.6","73.6","30.07","345","0","0","0.00","0.00"
"19:24:59","67.8","59.5","74.9","30.07","345","0","0","0.00","0.00"
"19:29:56","67.2","59.4","75.9","30.07","345","0","0","0.00","0.00"
"19:34:57","66.7","59.4","77.2","30.07","345","0.3","1.2","0.00","0.00"
"19:39:58","66.5","59.8","79.2","30.07","345","0.3","1.2","0.00","0.00"
"19:44:58","66.1","59.1","78.3","30.07","345","0","1.2","0.00","0.00"
"19:49:59","65.6","58.7","78.6","30.07","345","0","0","0.00","0.00"
"19:54:59","65.1","58.7","79.9","30.07","345","0","1.2","0.00","0.00"
"19:59:59","64.7","59.2","82.4","30.08","345","0","1.2","0.00","0.00"
"20:04:57","64.3","58.7","82","30.08","345","0","0","0.00","0.00"
"20:09:59","63.9","58.5","82.7","30.08","345","0.2","1.2","0.00","0.00"
"20:14:56","63.6","58.9","84.7","30.08","345","1","2.3","0.00","0.00"
"20:19:59","63.5","58.9","85.1","30.08","345","0","1.2","0.00","0.00"
"20:24:57","63.1","58.4","84.5","30.08","345","0","1.2","0.00","0.00"
"20:29:59","62.8","58.6","86.2","30.10","345","0","0","0.00","0.00"
"20:34:59","62.6","58.6","86.6","30.10","345","0","0","0.00","0.00"
"20:39:58","62.2","58.1","86.4","30.10","345","0","0","0.00","0.00"
"20:44:57","61.9","58","87","30.10","345","0","0","0.00","0.00"
"20:49:56","61.6","57.9","87.7","30.10","345","0","0","0.00","0.00"
"20:54:56","61.5","57.9","88","30.10","345","0","0","0.00","0.00"
"20:59:59","61.3","57.8","88.4","30.11","345","0","0","0.00","0.00"
"21:04:57","61.1","57.8","89","30.11","345","0","0","0.00","0.00"
"21:09:56","60.9","57.8","89.4","30.11","345","0","0","0.00","0.00"
"21:14:59","60.9","58","90.3","30.11","345","0","0","0.00","0.00"
"21:19:59","60.8","57.8","90","30.11","345","0","0","0.00","0.00"
"21:24:56","60.7","57.9","90.5","30.11","345","0","0","0.00","0.00"
"21:29:57","60.6","57.9","90.7","30.12","345","0","0","0.00","0.00"
"21:34:57","60.3","57.4","90","30.12","345","0","0","0.00","0.00"
"21:39:57","60.1","57.3","90.5","30.12","345","0","0","0.00","0.00"
"21:44:58","59.9","57.3","91","30.12","345","0","0","0.00","0.00"
"21:49:59","59.8","57.2","91","30.12","345","0","0","0.00","0.00"
"21:54:58","59.6","57.1","91.4","30.12","345","0","0","0.00","0.00"
"21:59:59","59.5","57.2","92","30.13","345","0","0","0.00","0.00"
"22:04:59","59.4","57.2","92.1","30.13","345","0","0","0.00","0.00"
"22:09:58","59.5","57.5","93","30.13","345","0","0","0.00","0.00"
"22:14:56","59.4","57.2","92.2","30.13","345","0","0","0.00","0.00"
"22:19:59","59.1","56.9","92.2","30.13","345","0","0","0.00","0.00"
"22:24:58","59","57","93","30.13","345","0","0","0.00","0.00"
"22:29:57","58.8","56.5","92","30.13","345","0","0","0.00","0.00"
"22:34:58","58.5","56.5","93","30.13","345","0","0","0.00","0.00"
"22:39:58","58.4","56.4","93","30.13","345","0","0","0.00","0.00"
"22:44:56","58.3","56.3","93.1","30.13","345","0","0","0.00","0.00"
"22:49:59","58.2","56.5","94","30.13","345","0","0","0.00","0.00"
"22:54:59","58.2","56.5","94","30.13","345","0","0","0.00","0.00"
"22:59:58","58.1","56.4","94","30.13","345","0","0","0.00","0.00"
"23:04:56","58","56.3","94","30.13","345","0","0","0.00","0.00"
"23:09:59","57.9","56.2","94","30.13","345","0","0","0.00","0.00"
"23:14:59","57.8","56.1","94","30.14","345","0","0","0.00","0.00"
"23:19:59","57.7","56","94","30.14","345","0","0","0.00","0.00"
"23:24:59","57.7","56","94","30.14","345","0","0","0.00","0.00"
"23:29:59","57.5","55.8","94","30.14","345","0","0","0.00","0.00"
"23:34:57","57.4","55.7","94","30.14","345","0","0","0.00","0.00"
"23:39:58","57.3","55.6","94","30.14","345","0","0","0.00","0.00"
"23:44:56","57.2","55.5","94","30.14","345","0","0","0.00","0.00"
"23:49:58","57.2","55.5","94.3","30.14","345","0","0","0.00","0.00"
"23:54:58","57.1","55.7","95","30.14","345","0","0","0.00","0.00"
"23:59:56","57","55.6","95","30.15","345","0","0","0.00","0.00"
